Cyclone, PA

1:59 AM EST on February 12, 2016 (GMT -0500)
Bradford Regional

Weather History for KBFD - May, 2013

Change the Weather History Date:

Tuesday, May 7, 2013

  Actual Average Record
Temperature  
Mean Temperature 60 °F 51 °F  
Max Temperature 75 °F 63 °F 81 °F (2000)
Min Temperature 44 °F 38 °F 20 °F (1968)
Degree Days  
Heating Degree Days 6 10  
Month to date heating degree days 74  
Since 1 July heating degree days 7325  
Cooling Degree Days 0 0  
Month to date cooling degree days 0  
Year to date cooling degree days 2  
Growing Degree Days 10 (Base 50)    
Moisture  
Dew Point 43 °F    
Average Humidity 62    
Maximum Humidity 86    
Minimum Humidity 25    
Precipitation  
Precipitation 0.00 in 0.13 in 1.52 in (1965)
Month to date precipitation 0.88  
Year to date precipitation 13.44  
Sea Level Pressure  
Sea Level Pressure 30.07 in    
Wind  
Wind Speed 4 mph (ESE)    
Max Wind Speed 14 mph    
Max Gust Speed 21 mph    
Visibility 8 miles    
Events      
T = Trace of Precipitation, MM = Missing Value Source: NWS Daily Summary

Daily Weather History Graph

Daily Weather History Graph

Search for Another Location

Airport or City:

Trip Planner

Search our weather history database for the weather conditions in past years. The results will help you decide how hot, cold, wet, or windy it might be!

Date:

Astronomy

May. 07, 2013 Rise Set
Actual Time 6:03 AM EDT 8:19 PM EDT
Civil Twilight 5:32 AM EDT 8:50 PM EDT
Nautical Twilight 4:54 AM EDT 9:29 PM EDT
Astronomical Twilight 4:11 AM EDT 10:11 PM EDT
Moon 4:38 AM EDT (5/7) 6:16 PM EDT (5/7)
Length of Visible Light 15h 18m
Length of Day
14h 16m
Waning Crescent, 5% of the Moon is Illuminated
May 7
Waning Crescent
May 9
New
May 18
First Quarter
May 25
Full
May 31
Last Quarter

Hourly Weather History & Observations

Time (EDT) Temp. Windchill Dew Point Humidity Pressure Visibility Wind Dir Wind Speed Gust Speed Precip Events Conditions
12:53 AM 50.0 °F - 44.1 °F 80% 30.09 in 10.0 mi SE 3.5 mph - N/A   Clear
1:53 AM 50.0 °F - 45.0 °F 83% 30.08 in 10.0 mi SSE 3.5 mph - N/A   Clear
2:53 AM 50.0 °F - 45.0 °F 83% 30.08 in 10.0 mi Calm Calm - N/A   Clear
3:30 AM 46.9 °F - 43.0 °F 86% 30.10 in 1.8 mi Calm Calm - N/A   Clear
3:42 AM 46.9 °F - 42.1 °F 83% 30.10 in 4.0 mi Calm Calm - N/A   Haze
4:01 AM 46.0 °F - 42.1 °F 86% 30.10 in 1.8 mi Calm Calm - N/A   Clear
4:05 AM 46.0 °F - 42.1 °F 86% 30.10 in 3.0 mi Calm Calm - N/A   Clear
4:12 AM 46.0 °F - 41.0 °F 83% 30.10 in 1.8 mi Calm Calm - N/A   Haze
4:22 AM 46.0 °F - 42.1 °F 86% 30.10 in 4.0 mi Calm Calm - N/A   Clear
4:53 AM 44.1 °F 42.5 °F 39.9 °F 85% 30.08 in 9.0 mi SE 3.5 mph - N/A   Clear
5:01 AM 44.1 °F 42.5 °F 39.9 °F 85% 30.10 in 1.8 mi SE 3.5 mph - N/A   Clear
5:12 AM 46.0 °F - 41.0 °F 83% 30.09 in 3.0 mi Calm Calm - N/A   Haze
5:44 AM 46.0 °F - 42.1 °F 86% 30.09 in 1.8 mi Calm Calm - N/A   Clear
5:57 AM 48.0 °F - 43.0 °F 83% 30.09 in 3.0 mi Calm Calm - N/A   Haze
6:53 AM 51.1 °F - 46.9 °F 86% 30.09 in 9.0 mi Calm Calm - N/A   Clear
7:53 AM 55.9 °F - 48.9 °F 77% 30.09 in 10.0 mi Variable 4.6 mph - N/A   Clear
8:53 AM 61.0 °F - 48.0 °F 62% 30.10 in 10.0 mi SE 11.5 mph - N/A   Clear
9:53 AM 64.0 °F - 48.0 °F 56% 30.09 in 10.0 mi ESE 12.7 mph - N/A   Clear
10:53 AM 68.0 °F - 44.1 °F 42% 30.09 in 10.0 mi SE 9.2 mph - N/A   Clear
11:53 AM 70.0 °F - 39.9 °F 33% 30.08 in 10.0 mi ESE 13.8 mph 20.7 mph N/A   Clear
12:39 PM 72.0 °F - 43.0 °F 35% 30.09 in 10.0 mi ESE 13.8 mph 20.7 mph N/A   Clear
12:53 PM 71.1 °F - 43.0 °F 36% 30.07 in 10.0 mi SE 9.2 mph 18.4 mph N/A   Partly Cloudy
1:53 PM 72.0 °F - 42.1 °F 34% 30.05 in 10.0 mi ESE 8.1 mph - N/A   Mostly Cloudy
2:53 PM 72.0 °F - 37.9 °F 29% 30.03 in 10.0 mi East 11.5 mph - N/A   Overcast
3:53 PM 75.0 °F - 37.0 °F 25% 30.01 in 10.0 mi SE 11.5 mph 18.4 mph N/A   Partly Cloudy
4:53 PM 73.9 °F - 36.0 °F 25% 30.00 in 10.0 mi East 10.4 mph 17.3 mph N/A   Scattered Clouds
5:53 PM 72.0 °F - 41.0 °F 33% 30.00 in 10.0 mi East 6.9 mph - N/A   Mostly Cloudy
6:53 PM 72.0 °F - 41.0 °F 33% 30.00 in 10.0 mi SE 11.5 mph - N/A   Mostly Cloudy
7:53 PM 69.1 °F - 43.0 °F 39% 30.01 in 10.0 mi East 6.9 mph - 0.00 in   Overcast
8:53 PM 66.9 °F - 45.0 °F 45% 30.02 in 10.0 mi Calm Calm - 0.00 in   Overcast
9:53 PM 62.1 °F - 46.0 °F 56% 30.03 in 10.0 mi Calm Calm - N/A   Scattered Clouds
10:53 PM 63.0 °F - 46.0 °F 54% 30.03 in 10.0 mi SSE 5.8 mph - N/A   Clear
11:53 PM 57.9 °F - 46.0 °F 65% 30.04 in 10.0 mi ESE 3.5 mph - N/A   Clear